Location: Kaltenbach
(49.2000°N, 7.7500°E)
Time: 17:32:06
(UTC+00:00)

Cosmos 2218 Rocket - Pass Details

Date: 24 January 2020
Orbit: 956 x 1006 km, 82.9° (Epoch: 19 February)

Event Time Altitude Azimuth Distance (km) Brightness Sun altitude
Rises 17:56:15 0° 185° (S) 3,695 7.2 -16.9°
Reaches altitude 10° 17:58:45 10° 185° (S) 2,756 6.5 -17.3°
Maximum altitude 18:05:06 85° 99° (E) 1,013 4.0 -18.3°
Drops below altitude 10° 18:11:33 10° 10° (N) 2,793 6.2 -19.3°
Sets 18:14:06 0° 10° (N) 3,748 6.9 -19.7°
